When you browse on this site, cookies collect data to enhance your experience and personalize the content and advertising you see.
Visit our Privacy Policy to learn more. By continuing to use the site, you agree to this use of cookies and data.
  • In Österreich
  • Länderverzeichnis
  • Für 7 Tage
  • Wassertemperatur
  • Satellitenkarten
  • Wetterkarte
  • News
  • Widgets
  • user-avatar
    Anmelden

    Stündliche Wetter Semmering

    Heute, 19 April, Freitag

    Zeit Temperatur Niederschläge Wind Luftdruck Luftfeuchtigkeit
    00:00 +4°C° 0 mm 1 m/S 671 mmHg 84%
    01:00 +4°C° 0 mm 1 m/S 671 mmHg 82%
    02:00 +4°C° 0 mm 1 m/S 671 mmHg 81%
    03:00 +3°C° 0 mm 1 m/S 671 mmHg 81%
    04:00 +3°C° 0 mm 1 m/S 671 mmHg 80%
    05:00 +5°C° 0 mm 1 m/S 671 mmHg 75%
    06:00 +6°C° 0 mm 1 m/S 672 mmHg 71%
    07:00 +8°C° 0 mm 1 m/S 673 mmHg 66%
    08:00 +10°C° 0 mm 1 m/S 673 mmHg 58%
    09:00 +12°C° 0 mm 1 m/S 673 mmHg 51%
    10:00 +14°C° 0 mm 1 m/S 674 mmHg 43%
    11:00 +14°C° 0 mm 1 m/S 674 mmHg 41%
    12:00 +15°C° 0 mm 2 m/S 674 mmHg 39%
    13:00 +16°C° 0 mm 2 m/S 674 mmHg 38%
    14:00 +15°C° 0 mm 2 m/S 673 mmHg 39%
    15:00 +15°C° 0 mm 2 m/S 673 mmHg 41%
    16:00 +15°C° 0 mm 2 m/S 673 mmHg 43%
    17:00 +12°C° 0 mm 2 m/S 672 mmHg 53%
    18:00 +10°C° 0 mm 1 m/S 671 mmHg 63%
    19:00 +8°C° 0 mm 1 m/S 671 mmHg 74%
    20:00 +7°C° 0 mm 1 m/S 671 mmHg 75%
    21:00 +7°C° 0 mm 1 m/S 671 mmHg 77%
    22:00 +6°C° 0 mm 1 m/S 671 mmHg 78%
    23:00 +5°C° 0 mm 1 m/S 671 mmHg 78%

    Morgen, 20 April, Samstag

    Zeit Temperatur Niederschläge Wind Luftdruck Luftfeuchtigkeit
    00:00 +5°C° 0 mm 1 m/S 671 mmHg 78%
    01:00 +5°C° 0 mm 1 m/S 671 mmHg 78%
    02:00 +4°C° 0 mm 1 m/S 671 mmHg 79%
    03:00 +4°C° 0 mm 1 m/S 671 mmHg 80%
    04:00 +3°C° 0 mm 1 m/S 671 mmHg 81%
    05:00 +5°C° 0 mm 1 m/S 671 mmHg 76%
    06:00 +5°C° 0 mm 0 m/S 672 mmHg 71%
    07:00 +7°C° 0 mm 0 m/S 672 mmHg 65%
    08:00 +10°C° 0 mm 1 m/S 673 mmHg 57%
    09:00 +12°C° 0 mm 1 m/S 673 mmHg 50%
    10:00 +14°C° 0 mm 1 m/S 673 mmHg 42%
    11:00 +14°C° 0 mm 1 m/S 673 mmHg 40%
    12:00 +15°C° 0 mm 2 m/S 673 mmHg 38%
    13:00 +15°C° 0 mm 2 m/S 673 mmHg 36%
    14:00 +15°C° 0 mm 2 m/S 673 mmHg 38%
    15:00 +15°C° 0 mm 2 m/S 672 mmHg 39%
    16:00 +14°C° 0 mm 2 m/S 672 mmHg 41%
    17:00 +12°C° 0 mm 2 m/S 671 mmHg 51%
    18:00 +9°C° 0 mm 1 m/S 670 mmHg 61%
    19:00 +7°C° 0 mm 1 m/S 669 mmHg 70%
    20:00 +6°C° 0 mm 1 m/S 669 mmHg 72%
    21:00 +6°C° 0 mm 1 m/S 669 mmHg 74%
    22:00 +5°C° 0 mm 1 m/S 669 mmHg 76%
    23:00 +5°C° 0 mm 1 m/S 669 mmHg 76%

    übermorgen, 21 April, Sonntag

    Zeit Temperatur Niederschläge Wind Luftdruck Luftfeuchtigkeit
    00:00 +5°C° 0 mm 1 m/S 669 mmHg 76%
    01:00 +4°C° 0 mm 1 m/S 668 mmHg 75%
    02:00 +4°C° 0 mm 1 m/S 668 mmHg 75%
    03:00 +4°C° 0 mm 1 m/S 668 mmHg 75%
    04:00 +4°C° 0 mm 1 m/S 667 mmHg 75%
    05:00 +5°C° 0 mm 1 m/S 668 mmHg 71%
    06:00 +6°C° 0 mm 0 m/S 668 mmHg 66%
    07:00 +8°C° 0 mm 0 m/S 668 mmHg 62%
    08:00 +10°C° 0 mm 1 m/S 669 mmHg 56%
    09:00 +12°C° 0 mm 1 m/S 669 mmHg 49%
    10:00 +14°C° 0 mm 1 m/S 669 mmHg 43%
    11:00 +14°C° 0 mm 1 m/S 669 mmHg 42%
    12:00 +15°C° 0 mm 2 m/S 668 mmHg 41%
    13:00 +15°C° 0 mm 2 m/S 668 mmHg 40%
    14:00 +14°C° 0 mm 2 m/S 667 mmHg 45%
    15:00 +13°C° 0 mm 2 m/S 667 mmHg 49%
    16:00 +12°C° 0 mm 2 m/S 666 mmHg 54%
    17:00 +11°C° 0 mm 1 m/S 665 mmHg 58%
    18:00 +10°C° 0 mm 1 m/S 665 mmHg 63%
    19:00 +9°C° 0 mm 1 m/S 664 mmHg 67%
    20:00 +8°C° 0 mm 1 m/S 664 mmHg 68%
    21:00 +8°C° 0 mm 1 m/S 664 mmHg 70%
    22:00 +7°C° 0 mm 1 m/S 664 mmHg 71%
    23:00 +6°C° 0 mm 1 m/S 664 mmHg 74%

    22 April, Montag

    Zeit Temperatur Niederschläge Wind Luftdruck Luftfeuchtigkeit
    00:00 +5°C° 0 mm 1 m/S 663 mmHg 77%
    01:00 +4°C° 0 mm 0 m/S 663 mmHg 80%
    02:00 +3°C° 0 mm 0 m/S 662 mmHg 82%
    03:00 +3°C° 0 mm 0 m/S 662 mmHg 83%
    04:00 +3°C° 0 mm 0 m/S 661 mmHg 85%
    05:00 +4°C° 0 mm 0 m/S 661 mmHg 79%
    06:00 +6°C° 0 mm 1 m/S 662 mmHg 74%
    07:00 +8°C° 0 mm 1 m/S 662 mmHg 68%
    08:00 +10°C° 0 mm 1 m/S 662 mmHg 63%
    09:00 +10°C° 0 mm 2 m/S 662 mmHg 58%
    10:00 +13°C° 0 mm 2 m/S 662 mmHg 54%
    11:00 +12°C° 0 mm 3 m/S 662 mmHg 51%
    12:00 +13°C° 0 mm 3 m/S 661 mmHg 49%
    13:00 +13°C° 0 mm 4 m/S 661 mmHg 46%
    14:00 +13°C° 0 mm 5 m/S 661 mmHg 44%
    15:00 +13°C° 0 mm 5 m/S 660 mmHg 42%
    16:00 +13°C° 0 mm 5 m/S 660 mmHg 40%
    17:00 +12°C° 0 mm 5 m/S 659 mmHg 50%
    18:00 +10°C° 0 mm 4 m/S 659 mmHg 60%
    19:00 +7°C° 0 mm 4 m/S 658 mmHg 71%
    20:00 +7°C° 0.1 mm 4 m/S 658 mmHg 75%
    21:00 +7°C° 0.1 mm 4 m/S 658 mmHg 79%
    22:00 +7°C° 0.1 mm 4 m/S 658 mmHg 84%
    23:00 +7°C° 0.1 mm 3 m/S 658 mmHg 87%

    23 April, Dienstag

    Zeit Temperatur Niederschläge Wind Luftdruck Luftfeuchtigkeit
    00:00 +7°C° 0.1 mm 3 m/S 658 mmHg 90%
    01:00 +5°C° 0.1 mm 3 m/S 657 mmHg 93%
    02:00 +5°C° 0 mm 3 m/S 657 mmHg 92%
    03:00 +5°C° 0 mm 3 m/S 657 mmHg 92%
    04:00 +4°C° 0 mm 3 m/S 657 mmHg 92%
    05:00 +4°C° 0.3 mm 3 m/S 657 mmHg 93%
    06:00 +5°C° 0.3 mm 3 m/S 657 mmHg 93%
    07:00 +5°C° 0.3 mm 4 m/S 657 mmHg 94%
    08:00 +5°C° 0.2 mm 4 m/S 657 mmHg 94%
    09:00 +5°C° 0.2 mm 4 m/S 657 mmHg 93%
    10:00 +5°C° 0.2 mm 4 m/S 657 mmHg 93%
    11:00 +5°C° 0.2 mm 4 m/S 657 mmHg 92%
    12:00 +5°C° 0.2 mm 3 m/S 657 mmHg 92%
    13:00 +7°C° 0.2 mm 3 m/S 657 mmHg 92%
    14:00 +7°C° 1.3 mm 3 m/S 657 mmHg 94%
    15:00 +7°C° 1.3 mm 2 m/S 657 mmHg 95%
    16:00 +7°C° 1.3 mm 2 m/S 657 mmHg 96%
    17:00 +8°C° 0.2 mm 2 m/S 657 mmHg 97%
    18:00 +8°C° 0.2 mm 2 m/S 657 mmHg 97%
    19:00 +8°C° 0.2 mm 2 m/S 658 mmHg 97%
    20:00 +8°C° 0 mm 2 m/S 658 mmHg 97%
    21:00 +8°C° 0 mm 3 m/S 658 mmHg 97%
    22:00 +8°C° 0 mm 3 m/S 659 mmHg 97%
    23:00 +8°C° 0 mm 3 m/S 659 mmHg 97%

    24 April, Mittwoch

    Zeit Temperatur Niederschläge Wind Luftdruck Luftfeuchtigkeit
    00:00 +7°C° 0 mm 3 m/S 659 mmHg 97%
    01:00 +7°C° 0 mm 3 m/S 659 mmHg 96%
    02:00 +7°C° 0 mm 3 m/S 659 mmHg 97%
    03:00 +7°C° 0 mm 3 m/S 660 mmHg 97%
    04:00 +7°C° 0 mm 3 m/S 660 mmHg 97%
    05:00 +7°C° 0 mm 2 m/S 660 mmHg 95%
    06:00 +8°C° 0 mm 2 m/S 661 mmHg 93%
    07:00 +9°C° 0 mm 2 m/S 661 mmHg 91%
    08:00 +10°C° 0 mm 2 m/S 662 mmHg 83%
    09:00 +13°C° 0 mm 2 m/S 663 mmHg 75%
    10:00 +15°C° 0 mm 2 m/S 664 mmHg 68%
    11:00 +15°C° 0 mm 2 m/S 664 mmHg 67%
    12:00 +16°C° 0 mm 2 m/S 664 mmHg 66%
    13:00 +16°C° 0 mm 3 m/S 664 mmHg 65%
    14:00 +16°C° 0.2 mm 3 m/S 664 mmHg 63%
    15:00 +17°C° 0.2 mm 3 m/S 664 mmHg 62%
    16:00 +17°C° 0.2 mm 3 m/S 664 mmHg 60%
    17:00 +14°C° 0.1 mm 3 m/S 664 mmHg 69%
    18:00 +13°C° 0.1 mm 2 m/S 663 mmHg 78%
    19:00 +12°C° 0.1 mm 2 m/S 663 mmHg 86%
    20:00 +10°C° 0 mm 2 m/S 663 mmHg 89%
    21:00 +9°C° 0 mm 2 m/S 663 mmHg 92%
    22:00 +8°C° 0 mm 2 m/S 664 mmHg 94%
    23:00 +8°C° 0 mm 2 m/S 663 mmHg 94%
    Mehr zeigen